STARS-ME

Last updated on Sun Jun 27 2021 00:02:09 GMT+0000 (Coordinated Universal Time)

1 43640U 98067PQ 21177.48090856 .06251270 12411-4 46174-3 0 9996 2 43640 51.6078 176.1291 0003401 286.8094 73.2559 16.39860287155785

Satellite not in orbit